Ada, OK

9:05 AM CDT on April 30, 2017 (GMT -0500)
Ada Municipal

Weather History for KADH - March, 2013

Change the Weather History Date:

Friday, March 15, 2013

  Actual Average Record
Temperature  
Mean Temperature 65 °F -  
Max Temperature 77 °F 63 °F 84 °F (1984)
Min Temperature 53 °F 40 °F 20 °F (1954)
Growing Degree Days 15 (Base 50)    
Moisture  
Dew Point 47 °F    
Average Humidity 52    
Maximum Humidity 72    
Minimum Humidity 39    
Precipitation  
Precipitation 0.00 in - - ()
Sea Level Pressure  
Sea Level Pressure 29.97 in    
Wind  
Wind Speed 13 mph (SSW)    
Max Wind Speed 22 mph    
Max Gust Speed 29 mph    
Visibility 10 miles    
Events      
Averages and records for this station are not official NWS values.
T = Trace of Precipitation, MM = Missing Value Source: NWS Daily Summary

Daily Weather History Graph

Daily Weather History Graph

Search for Another Location

Airport or City:

Trip Planner

Search our weather history database for the weather conditions in past years. The results will help you decide how hot, cold, wet, or windy it might be!

Date:

Astronomy

Mar. 15, 2013 Rise Set
Actual Time 7:36 AM CDT 7:34 PM CDT
Civil Twilight 7:11 AM CDT 7:59 PM CDT
Nautical Twilight 6:42 AM CDT 8:29 PM CDT
Astronomical Twilight 6:12 AM CDT 8:58 PM CDT
Moon 9:38 AM CDT (3/15) 11:38 PM CDT (3/15)
Length of Visible Light 12h 48m
Length of Day
11h 57m
Waxing Crescent, 15% of the Moon is Illuminated
Mar 15
Waxing Crescent
Mar 19
First Quarter
Mar 27
Full
Apr 2
Last Quarter
Apr 10
New

Hourly Weather History & Observations

Time (CDT) Temp. Dew Point Humidity Pressure Visibility Wind Dir Wind Speed Gust Speed Precip Events Conditions
12:15 AM 59.0 °F 44.6 °F 59% 30.14 in 10.0 mi South 10.4 mph - N/A   Clear
12:35 AM 59.0 °F 44.6 °F 59% 30.14 in 10.0 mi South 9.2 mph 16.1 mph N/A   Clear
12:55 AM 59.0 °F 44.6 °F 59% 30.13 in 10.0 mi SSW 12.7 mph - N/A   Clear
1:15 AM 60.8 °F 46.4 °F 59% 30.12 in 10.0 mi SSW 11.5 mph - N/A   Clear
1:35 AM 60.8 °F 44.6 °F 55% 30.12 in 10.0 mi SSW 11.5 mph 17.3 mph N/A   Clear
2:15 AM 60.8 °F 44.6 °F 55% 30.11 in 10.0 mi SSW 9.2 mph 18.4 mph N/A   Clear
2:35 AM 60.8 °F 44.6 °F 55% 30.11 in 10.0 mi SW 10.4 mph 16.1 mph N/A   Clear
2:55 AM 59.0 °F 44.6 °F 59% 30.10 in 10.0 mi SW 12.7 mph - N/A   Clear
3:15 AM 59.0 °F 44.6 °F 59% 30.10 in 10.0 mi SW 12.7 mph 18.4 mph N/A   Clear
3:35 AM 59.0 °F 44.6 °F 59% 30.09 in 10.0 mi SW 13.8 mph 18.4 mph N/A   Clear
3:55 AM 57.2 °F 44.6 °F 63% 30.09 in 10.0 mi SW 9.2 mph - N/A   Clear
4:15 AM 55.4 °F 44.6 °F 67% 30.08 in 10.0 mi SSW 6.9 mph - N/A   Clear
4:35 AM 57.2 °F 44.6 °F 63% 30.07 in 10.0 mi SSW 11.5 mph - N/A   Clear
4:55 AM 59.0 °F 44.6 °F 59% 30.06 in 10.0 mi SSW 11.5 mph - N/A   Clear
5:15 AM 59.0 °F 44.6 °F 59% 30.06 in 10.0 mi SSW 9.2 mph - N/A   Clear
5:35 AM 59.0 °F 44.6 °F 59% 30.06 in 10.0 mi SW 12.7 mph - N/A   Clear
5:55 AM 57.2 °F 44.6 °F 63% 30.06 in 10.0 mi SW 12.7 mph 17.3 mph N/A   Clear
6:15 AM 55.4 °F 44.6 °F 67% 30.05 in 10.0 mi SW 11.5 mph - N/A   Clear
6:35 AM 55.4 °F 44.6 °F 67% 30.05 in 10.0 mi SW 10.4 mph - N/A   Clear
6:55 AM 55.4 °F 44.6 °F 67% 30.05 in 10.0 mi SW 10.4 mph - N/A   Clear
7:15 AM 55.4 °F 44.6 °F 67% 30.06 in 10.0 mi SSW 10.4 mph - N/A   Clear
7:35 AM 53.6 °F 44.6 °F 72% 30.06 in 10.0 mi SSW 10.4 mph - N/A   Clear
7:55 AM 53.6 °F 44.6 °F 72% 30.05 in 10.0 mi SSW 10.4 mph - N/A   Clear
8:15 AM 53.6 °F 44.6 °F 72% 30.05 in 10.0 mi South 8.1 mph - N/A   Clear
8:35 AM 55.4 °F 44.6 °F 67% 30.06 in 10.0 mi SSW 8.1 mph - N/A   Clear
8:55 AM 57.2 °F 44.6 °F 63% 30.05 in 10.0 mi SSW 11.5 mph - N/A   Clear
9:15 AM 59.0 °F 46.4 °F 63% 30.05 in 10.0 mi SSW 11.5 mph - N/A   Clear
9:35 AM 60.8 °F 46.4 °F 59% 30.05 in 10.0 mi SSW 12.7 mph 20.7 mph N/A   Clear
11:15 AM 68.0 °F 46.4 °F 46% 30.02 in 10.0 mi SW 15.0 mph 20.7 mph N/A   Clear
11:35 AM 68.0 °F 46.4 °F 46% 30.02 in 10.0 mi WSW 17.3 mph 25.3 mph N/A   Clear
11:55 AM 69.8 °F 46.4 °F 43% 30.01 in 10.0 mi SW 15.0 mph 21.9 mph N/A   Clear
12:15 PM 71.6 °F 48.2 °F 43% 30.00 in 10.0 mi SW 15.0 mph 20.7 mph N/A   Clear
12:35 PM 71.6 °F 48.2 °F 43% 29.99 in 10.0 mi SW 16.1 mph 23.0 mph N/A   Clear
12:55 PM 73.4 °F 50.0 °F 44% 29.98 in 10.0 mi SW 18.4 mph 24.2 mph N/A   Clear
1:15 PM 73.4 °F 48.2 °F 41% 29.97 in 10.0 mi SW 17.3 mph 24.2 mph N/A   Clear
1:35 PM 73.4 °F 50.0 °F 44% 29.96 in 10.0 mi SSW 16.1 mph 24.2 mph N/A   Clear
1:55 PM 75.2 °F 50.0 °F 41% 29.96 in 10.0 mi SSW 18.4 mph 24.2 mph N/A   Clear
2:15 PM 75.2 °F 51.8 °F 44% 29.95 in 10.0 mi SSW 13.8 mph 23.0 mph N/A   Clear
2:35 PM 75.2 °F 51.8 °F 44% 29.94 in 10.0 mi SSW 13.8 mph 24.2 mph N/A   Clear
2:55 PM 77.0 °F 50.0 °F 39% 29.93 in 10.0 mi SW 18.4 mph 23.0 mph N/A   Clear
3:15 PM 77.0 °F 51.8 °F 41% 29.92 in 10.0 mi SSW 18.4 mph 23.0 mph N/A   Clear
3:35 PM 77.0 °F 51.8 °F 41% 29.90 in 10.0 mi SSW 21.9 mph 26.5 mph N/A   Clear
3:55 PM 77.0 °F 51.8 °F 41% 29.89 in 10.0 mi SSW 18.4 mph 23.0 mph N/A   Clear
4:15 PM 77.0 °F 51.8 °F 41% 29.89 in 10.0 mi SSW 20.7 mph 26.5 mph N/A   Clear
4:35 PM 77.0 °F 51.8 °F 41% 29.88 in 10.0 mi SW 17.3 mph 24.2 mph N/A   Clear
4:55 PM 77.0 °F 50.0 °F 39% 29.87 in 10.0 mi SSW 18.4 mph 26.5 mph N/A   Clear
5:15 PM 77.0 °F 51.8 °F 41% 29.86 in 10.0 mi SSW 21.9 mph 26.5 mph N/A   Clear
5:35 PM 77.0 °F 51.8 °F 41% 29.86 in 10.0 mi SSW 18.4 mph 23.0 mph N/A   Clear
5:55 PM 77.0 °F 51.8 °F 41% 29.86 in 10.0 mi South 17.3 mph 24.2 mph N/A   Clear
6:15 PM 75.2 °F 50.0 °F 41% 29.85 in 10.0 mi SSW 16.1 mph 28.8 mph N/A   Clear
6:35 PM 75.2 °F 50.0 °F 41% 29.85 in 10.0 mi South 12.7 mph 21.9 mph N/A   Clear
6:55 PM 73.4 °F 50.0 °F 44% 29.85 in 10.0 mi SSW 13.8 mph 23.0 mph N/A   Clear
7:15 PM 73.4 °F 50.0 °F 44% 29.85 in 10.0 mi South 16.1 mph 19.6 mph N/A   Clear
7:35 PM 71.6 °F 48.2 °F 43% 29.85 in 10.0 mi South 12.7 mph - N/A   Clear
7:55 PM 71.6 °F 46.4 °F 41% 29.85 in 10.0 mi South 13.8 mph - N/A   Clear
8:15 PM 69.8 °F 46.4 °F 43% 29.85 in 10.0 mi South 12.7 mph - N/A   Clear
8:35 PM 68.0 °F 46.4 °F 46% 29.85 in 10.0 mi South 10.4 mph - N/A   Clear
8:55 PM 68.0 °F 46.4 °F 46% 29.85 in 10.0 mi South 10.4 mph - N/A   Clear
9:15 PM 66.2 °F 44.6 °F 46% 29.85 in 10.0 mi South 11.5 mph - N/A   Clear
9:35 PM 66.2 °F 44.6 °F 46% 29.84 in 10.0 mi South 12.7 mph - N/A   Clear
9:55 PM 66.2 °F 46.4 °F 49% 29.84 in 10.0 mi South 15.0 mph 19.6 mph N/A   Clear
10:15 PM 66.2 °F 46.4 °F 49% 29.84 in 10.0 mi South 11.5 mph - N/A   Clear
10:35 PM 66.2 °F 46.4 °F 49% 29.83 in 10.0 mi South 16.1 mph 23.0 mph N/A   Clear
10:55 PM 66.2 °F 46.4 °F 49% 29.83 in 10.0 mi South 13.8 mph - N/A   Clear
11:15 PM 66.2 °F 46.4 °F 49% 29.83 in 10.0 mi South 17.3 mph - N/A   Clear
11:35 PM 64.4 °F 46.4 °F 52% 29.83 in 10.0 mi South 15.0 mph 20.7 mph N/A   Clear
11:55 PM 64.4 °F 44.6 °F 49% 29.82 in 10.0 mi South 15.0 mph 19.6 mph N/A   Clear